GW5169 Weather Reports


Display with metric or nautical units.
time (UTC)temp
F
wind
direction
speed
MPH
gust
MPH
rain 1hr
in
rain 24hr
in
rain mn
in
humidity
%
barometer
mb
20260906162140 73 172 4.0 6.0 0.00 0.00 0.00 81 1021.8
20260906161636 73 91 0.0 1.0 0.00 0.00 0.00 80 1021.7
20260906161134 73 108 0.0 0.0 0.00 0.00 0.00 80 1021.8
20260906160633 73 100 1.0 2.0 0.00 0.00 0.00 80 1022.0
20260906160132 72 128 1.0 1.0 0.00 0.00 0.00 82 1022.0
20260906155630 72 91 0.0 1.0 0.00 0.00 0.00 82 1022.0
20260906155126 72 76 0.0 0.0 0.00 0.00 0.00 82 1021.9
20260906154621 72 156 1.0 2.0 0.00 0.00 0.00 83 1021.9
20260906154120 72 150 3.0 3.0 0.00 0.00 0.00 83 1022.0
20260906153619 71 70 0.0 1.0 0.00 0.00 0.00 84 1021.9
20260906153114 71 95 2.0 3.0 0.00 0.00 0.00 84 1021.9
20260906152610 70 89 0.0 1.0 0.00 0.00 0.00 86 1021.9
20260906152109 70 97 4.0 4.0 0.00 0.00 0.00 86 1021.9
20260906151604 70 75 2.0 2.0 0.00 0.00 0.00 86 1021.9
20260906151059 70 71 0.0 0.0 0.00 0.00 0.00 87 1022.0
20260906150554 69 82 1.0 2.0 0.00 0.00 0.00 88 1021.9
20260906150049 69 158 3.0 4.0 0.00 0.00 0.00 88 1021.9
20260906145548 69 158 3.0 4.0 0.00 0.00 0.00 88 1021.8
20260906145043 69 119 5.0 7.0 0.00 0.00 0.00 88 1021.9
20260906144538 69 84 4.0 6.0 0.00 0.00 0.00 89 1021.6
20260906144033 69 72 3.0 3.0 0.00 0.00 0.00 88 1021.9
20260906143528 69 109 5.0 6.0 0.00 0.00 0.00 88 1021.9
20260906143025 69 86 2.0 2.0 0.00 0.00 0.00 87 1021.8
20260906142524 69 125 3.0 4.0 0.00 0.00 0.00 89 1021.7
20260906142020 69 86 4.0 4.0 0.00 0.00 0.00 88 1021.5
20260906141520 69 97 4.0 6.0 0.00 0.00 0.00 88 1021.6
20260906141015 69 87 1.0 1.0 0.00 0.00 0.00 88 1021.6
20260906140514 69 140 1.0 3.0 0.00 0.00 0.00 88 1021.6
20260906140014 69 82 2.0 2.0 0.00 0.00 0.00 89 1021.5
20260906135511 68 94 2.0 3.0 0.00 0.00 0.00 89 1021.3
20260906135007 68 105 2.0 2.0 0.00 0.00 0.00 90 1021.5
20260906134502 67 92 5.0 6.0 0.00 0.00 0.00 91 1021.4
20260906133956 67 102 4.0 4.0 0.00 0.00 0.00 91 1021.4
20260906133452 67 107 2.0 6.0 0.00 0.00 0.00 91 1021.3
20260906132947 68 106 6.0 7.0 0.00 0.00 0.00 90 1021.5
20260906132442 67 108 3.0 4.0 0.00 0.00 0.00 91 1021.3
20260906131938 67 86 3.0 4.0 0.00 0.00 0.00 91 1021.3
20260906131433 67 72 7.0 9.0 0.00 0.00 0.00 91 1021.3
20260906130929 67 150 5.0 6.0 0.00 0.00 0.00 91 1021.1
20260906130428 67 125 7.0 8.0 0.00 0.00 0.00 91 1021.1
20260906125923 67 105 5.0 7.0 0.00 0.00 0.00 91 1021.0
20260906125420 67 102 3.0 4.0 0.00 0.00 0.00 91 1021.0
20260906124920 67 72 3.0 4.0 0.00 0.00 0.00 91 1021.2
20260906124416 67 117 4.0 4.0 0.00 0.00 0.00 91 1021.0
20260906123915 67 74 5.0 7.0 0.00 0.00 0.00 90 1021.2
20260906123410 67 109 4.0 6.0 0.00 0.00 0.00 90 1021.1
20260906122910 67 84 7.0 9.0 0.00 0.00 0.00 91 1021.3
20260906122405 68 114 4.0 4.0 0.00 0.00 0.00 90 1021.1
20260906121902 67 108 4.0 6.0 0.00 0.00 0.00 90 1021.1
20260906121357 67 135 5.0 6.0 0.00 0.00 0.00 91 1021.1
20260906120853 67 113 6.0 7.0 0.00 0.00 0.00 90 1021.1
20260906120349 67 103 2.0 3.0 0.00 0.00 0.00 91 1021.1
20260906115845 68 79 0.0 0.0 0.00 0.00 0.00 91 1021.1
20260906115340 68 127 3.0 3.0 0.00 0.00 0.00 91 1020.9
20260906114839 67 113 2.0 3.0 0.00 0.00 0.00 91 1021.1
20260906114334 67 113 2.0 2.0 0.00 0.00 0.00 91 1020.6
20260906113830 67 75 0.0 0.0 0.00 0.00 0.00 91 1020.9
20260906113329 67 51 2.0 3.0 0.00 0.00 0.00 92 1020.7
20260906112824 67 102 2.0 4.0 0.00 0.00 0.00 92 1020.6
20260906112321 67 102 1.0 2.0 0.00 0.00 0.00 92 1020.6
20260906111820 67 110 4.0 6.0 0.00 0.00 0.00 92 1020.5
20260906111319 67 90 2.0 2.0 0.00 0.00 0.00 93 1020.4
20260906110814 67 128 2.0 2.0 0.00 0.00 0.00 92 1020.4
20260906110310 67 125 4.0 4.0 0.00 0.00 0.00 92 1020.3
20260906105809 67 88 4.0 4.0 0.00 0.00 0.00 92 1020.3
20260906105306 67 91 2.0 3.0 0.00 0.00 0.00 92 1020.1
20260906104801 67 80 3.0 3.0 0.00 0.00 0.00 92 1020.2
20260906104259 67 105 4.0 4.0 0.00 0.00 0.00 92 1020.3
20260906103757 67 72 0.0 1.0 0.00 0.00 0.00 92 1020.4
20260906103251 68 79 0.0 1.0 0.00 0.00 0.00 92 1020.2
20260906102748 67 66 0.0 0.0 0.00 0.00 0.00 93 1020.6
20260906102246 67 69 0.0 1.0 0.00 0.00 0.00 93 1020.4
20260906101741 67 71 0.0 0.0 0.00 0.00 0.00 93 1020.3
20260906101237 68 88 0.0 0.0 0.00 0.00 0.00 93 1020.1
20260906100732 68 81 0.0 0.0 0.00 0.00 0.00 93 1019.9
20260906100231 68 81 0.0 0.0 0.00 0.00 0.00 92 1019.6
20260906095726 68 107 2.0 2.0 0.00 0.00 0.00 93 1019.4
20260906095216 68 85 0.0 0.0 0.00 0.00 0.00 93 1019.3
20260906094715 68 101 1.0 1.0 0.00 0.00 0.00 92 1019.4
20260906094210 68 68 1.0 2.0 0.00 0.00 0.00 92 1019.2
20260906093707 68 86 2.0 2.0 0.00 0.00 0.00 92 1019.4
20260906093201 69 87 2.0 2.0 0.00 0.00 0.00 92 1019.5
20260906092657 69 59 1.0 1.0 0.00 0.00 0.00 92 1019.4
20260906092155 69 76 2.0 2.0 0.00 0.00 0.00 91 1019.4
20260906091653 69 74 1.0 1.0 0.00 0.00 0.00 91 1019.4
20260906091149 69 77 2.0 2.0 0.00 0.00 0.00 91 1019.3
20260906090645 70 79 0.0 1.0 0.00 0.00 0.00 90 1019.3
20260906090144 70 77 0.0 1.0 0.00 0.00 0.00 90 1019.5
20260906085643 70 96 2.0 2.0 0.00 0.00 0.00 90 1019.4
20260906085143 70 111 4.0 6.0 0.00 0.00 0.00 91 1019.3
20260906084637 70 54 1.0 1.0 0.00 0.00 0.00 91 1019.3
20260906084136 70 80 0.0 1.0 0.00 0.00 0.00 91 1019.4
20260906083632 70 75 1.0 1.0 0.00 0.00 0.00 91 1019.3
20260906083127 70 101 3.0 3.0 0.00 0.00 0.00 91 1019.3
20260906082622 70 119 4.0 4.0 0.00 0.00 0.00 91 1019.3
20260906082118 70 94 2.0 2.0 0.00 0.00 0.00 91 1019.2
20260906081613 70 95 3.0 3.0 0.00 0.00 0.00 90 1019.1
20260906081108 70 77 4.0 6.0 0.00 0.00 0.00 90 1019.2
20260906080606 70 66 1.0 2.0 0.00 0.00 0.00 91 1019.2
20260906075600 71 95 6.0 7.0 0.00 0.00 0.00 90 1019.3
20260906075055 71 87 1.0 2.0 0.00 0.00 0.00 90 1019.3
20260906074550 71 56 1.0 1.0 0.00 0.00 0.00 90 1019.3
20260906074049 71 65 1.0 4.0 0.00 0.00 0.00 90 1019.3
20260906073544 71 126 2.0 3.0 0.00 0.00 0.00 89 1019.2
20260906073040 71 83 4.0 6.0 0.00 0.00 0.00 90 1019.4
20260906072534 71 94 4.0 4.0 0.00 0.00 0.00 89 1019.3
20260906072031 71 93 1.0 2.0 0.00 0.00 0.00 89 1019.5
20260906071527 71 85 1.0 2.0 0.00 0.00 0.00 89 1019.7
20260906071022 71 111 2.0 3.0 0.00 0.00 0.00 89 1019.5
20260906070518 71 73 2.0 3.0 0.00 0.00 0.00 89 1019.9
20260906070014 71 79 1.0 2.0 0.00 0.00 0.00 89 1020.2
20260906065513 71 96 0.0 1.0 0.00 0.00 0.00 89 1020.0
20260906065009 71 91 2.0 3.0 0.00 0.00 0.00 88 1020.1
20260906064505 71 77 1.0 2.0 0.00 0.00 0.00 88 1020.2
20260906064000 71 109 1.0 3.0 0.00 0.00 0.00 88 1019.7
20260906063455 72 72 2.0 4.0 0.00 0.00 0.00 88 1019.7
20260906062949 72 98 5.0 7.0 0.00 0.00 0.00 88 1020.0
20260906062444 72 46 2.0 3.0 0.00 0.00 0.00 88 1019.7
20260906061939 72 88 1.0 2.0 0.00 0.00 0.00 88 1020.0
20260906061435 72 73 1.0 2.0 0.00 0.00 0.00 88 1019.9
20260906060929 72 59 1.0 1.0 0.00 0.00 0.00 88 1019.7
20260906060426 72 110 1.0 3.0 0.00 0.00 0.00 88 1019.6
20260906055923 72 72 2.0 3.0 0.00 0.00 0.00 88 1019.7
20260906055418 72 66 1.0 2.0 0.00 0.00 0.00 88 1019.7
20260906054913 72 78 2.0 3.0 0.00 0.00 0.00 88 1019.9
20260906054408 72 74 0.0 1.0 0.00 0.00 0.00 88 1019.9
20260906053904 72 58 3.0 4.0 0.00 0.00 0.00 87 1019.7
20260906053400 72 74 1.0 1.0 0.00 0.00 0.00 88 1019.7
20260906052855 73 119 1.0 2.0 0.00 0.00 0.00 87 1019.7
20260906052352 73 84 3.0 3.0 0.00 0.00 0.00 86 1019.4
20260906051848 73 84 3.0 3.0 0.00 0.00 0.00 86 1019.6
20260906051343 73 74 2.0 3.0 0.00 0.00 0.00 86 1019.3
20260906050839 73 114 3.0 3.0 0.00 0.00 0.00 86 1019.3
20260906050333 73 60 0.0 1.0 0.00 0.00 0.00 85 1019.3
20260906045832 73 77 0.0 1.0 0.00 0.00 0.00 85 1019.7
20260906045326 73 54 0.0 2.0 0.00 0.00 0.00 85 1019.7
20260906044823 73 56 1.0 2.0 0.00 0.00 0.00 85 1019.6
20260906044322 73 64 1.0 1.0 0.00 0.00 0.00 85 1019.5
20260906043818 73 93 0.0 0.0 0.00 0.00 0.00 85 1019.5
20260906043314 73 102 2.0 2.0 0.00 0.00 0.00 86 1019.4
20260906042809 73 72 0.0 0.0 0.00 0.00 0.00 86 1019.9
20260906042308 73 43 1.0 2.0 0.00 0.00 0.00 86 1019.5
20260906041804 74 52 1.0 2.0 0.00 0.00 0.00 85 1019.7
20260906041258 74 64 0.0 0.0 0.00 0.00 0.00 84 1019.6
20260906040754 74 88 0.0 0.0 0.00 0.00 0.00 85 1019.6
20260906040249 74 345 3.0 3.0 0.00 0.00 0.00 84 1019.7
20260906035744 74 92 1.0 1.0 0.00 0.00 0.00 84 1019.0
20260906035240 73 94 0.0 0.0 0.00 0.00 0.00 86 1019.3
20260906034740 73 70 1.0 1.0 0.00 0.00 0.00 86 1018.9
20260906034235 73 106 4.0 4.0 0.00 0.00 0.00 86 1018.7
20260906033730 73 95 1.0 1.0 0.00 0.00 0.00 86 1019.1
20260906033230 74 112 3.0 3.0 0.00 0.00 0.00 85 1019.3
20260906032727 73 68 0.0 0.0 0.00 0.00 0.00 86 1019.1
20260906032227 74 16 1.0 1.0 0.00 0.00 0.00 86 1019.3
20260906031722 74 80 0.0 0.0 0.00 0.00 0.00 85 1019.1
20260906031218 74 90 0.0 0.0 0.00 0.00 0.00 85 1019.1
20260906030717 74 17 1.0 2.0 0.00 0.00 0.00 86 1019.1
20260906030213 74 350 2.0 2.0 0.00 0.00 0.00 86 1019.1
20260906025711 74 63 1.0 1.0 0.00 0.00 0.00 86 1018.8
20260906025206 74 73 0.0 0.0 0.00 0.00 0.00 86 1018.8
20260906024706 74 70 0.0 1.0 0.00 0.00 0.00 85 1018.8
20260906024205 74 81 0.0 0.0 0.00 0.00 0.00 85 1018.8
20260906023701 74 46 1.0 1.0 0.00 0.00 0.00 85 1018.5
20260906023200 74 81 0.0 0.0 0.00 0.00 0.00 85 1018.5
20260906022655 74 76 1.0 1.0 0.00 0.00 0.00 85 1018.7
20260906022151 74 60 0.0 1.0 0.00 0.00 0.00 85 1018.5
20260906021647 74 100 0.0 0.0 0.00 0.00 0.00 85 1018.3
20260906021145 75 78 0.0 0.0 0.00 0.00 0.00 84 1018.3
20260906020640 75 81 0.0 0.0 0.00 0.00 0.00 84 1018.5
20260906020136 75 23 0.0 1.0 0.00 0.00 0.00 84 1018.4
20260906015630 75 73 0.0 0.0 0.00 0.00 0.00 83 1018.2
20260906015129 75 84 1.0 1.0 0.00 0.00 0.00 83 1018.3
20260906014628 75 74 0.0 0.0 0.00 0.00 0.00 83 1018.0
20260906014125 75 67 0.0 0.0 0.00 0.00 0.00 83 1018.0
20260906013620 75 87 0.0 1.0 0.00 0.00 0.00 82 1017.8
20260906013115 76 52 2.0 2.0 0.00 0.00 0.00 82 1017.9
20260906012610 76 92 2.0 2.0 0.00 0.00 0.00 81 1017.7
20260906012110 76 81 0.0 0.0 0.00 0.00 0.00 82 1017.6
20260906011607 76 72 2.0 3.0 0.00 0.00 0.00 81 1017.5
20260906011106 76 124 2.0 2.0 0.00 0.00 0.00 81 1017.4
20260906010602 77 90 0.0 1.0 0.00 0.00 0.00 80 1017.6
20260906010058 77 110 3.0 4.0 0.00 0.00 0.00 79 1017.4
20260906005557 77 60 0.0 0.0 0.00 0.00 0.00 79 1017.5
20260906005056 77 101 6.0 7.0 0.00 0.00 0.00 79 1017.6
20260906004556 77 112 4.0 6.0 0.00 0.00 0.00 79 1017.4
20260906004051 77 107 4.0 6.0 0.00 0.00 0.00 79 1017.4
20260906003546 77 83 2.0 3.0 0.00 0.00 0.00 79 1017.4
20260906003042 78 101 3.0 4.0 0.00 0.00 0.00 79 1017.3
20260906002536 78 92 5.0 7.0 0.00 0.00 0.00 79 1017.4
20260906002031 78 80 6.0 8.0 0.00 0.00 0.00 79 1017.4
20260906001526 78 45 5.0 7.0 0.00 0.00 0.00 78 1017.4
20260906001022 79 73 2.0 4.0 0.00 0.00 0.00 78 1017.4
20260906000518 79 89 2.0 6.0 0.00 0.00 0.00 77 1017.1
20260906000018 80 76 3.0 4.0 0.00 0.00 0.00 77 1017.2
20260905235511 80 56 2.0 3.0 0.00 0.00 0.00 76 1017.3
20260905235006 80 96 3.0 4.0 0.00 0.00 0.00 76 1017.3
20260905234502 80 105 2.0 3.0 0.00 0.00 0.00 75 1017.3
20260905233956 80 103 5.0 6.0 0.00 0.00 0.00 75 1017.2
20260905233452 81 77 5.0 6.0 0.00 0.00 0.00 74 1017.2
20260905232950 81 107 3.0 4.0 0.00 0.00 0.00 74 1017.3
20260905232447 81 68 1.0 1.0 0.00 0.00 0.00 75 1017.3
20260905231942 81 74 5.0 6.0 0.00 0.00 0.00 74 1016.9
20260905231438 81 78 3.0 6.0 0.00 0.00 0.00 74 1016.8
20260905230934 81 83 6.0 8.0 0.00 0.00 0.00 74 1017.0
20260905230432 82 99 6.0 10.0 0.00 0.00 0.00 74 1017.0
20260905225931 81 88 3.0 4.0 0.00 0.00 0.00 74 1017.0
20260905225426 81 51 3.0 4.0 0.00 0.00 0.00 74 1016.8
20260905224921 82 51 3.0 4.0 0.00 0.00 0.00 74 1016.9
20260905224417 82 93 5.0 9.0 0.00 0.00 0.00 74 1017.0
20260905223911 82 111 9.0 9.0 0.00 0.00 0.00 73 1017.0
20260905223409 82 67 1.0 1.0 0.00 0.00 0.00 74 1016.9
20260905222908 81 78 2.0 4.0 0.00 0.00 0.00 75 1017.1
20260905222408 80 61 2.0 2.0 0.00 0.00 0.00 76 1017.0
20260905221904 80 37 4.0 8.0 0.00 0.00 0.00 76 1017.1
20260905221401 80 95 3.0 3.0 0.00 0.00 0.00 77 1017.0
20260905220856 80 78 1.0 2.0 0.00 0.00 0.00 76 1017.1
20260905220352 81 114 3.0 6.0 0.00 0.00 0.00 75 1017.1
20260905215851 81 60 5.0 6.0 0.00 0.00 0.00 74 1017.1
20260905215347 81 355 6.0 8.0 0.00 0.00 0.00 74 1017.1
20260905214843 81 10 4.0 6.0 0.00 0.00 0.00 74 1017.3
20260905214338 80 23 3.0 4.0 0.00 0.00 0.00 75 1017.2
20260905213827 80 71 3.0 6.0 0.00 0.00 0.00 76 1017.2
20260905213323 80 66 4.0 6.0 0.00 0.00 0.00 76 1017.5
20260905212818 81 68 2.0 4.0 0.00 0.00 0.00 75 1017.5
20260905212313 81 71 2.0 2.0 0.00 0.00 0.00 73 1017.5
20260905211813 81 58 3.0 4.0 0.00 0.00 0.00 73 1017.4
20260905211308 81 46 3.0 4.0 0.00 0.00 0.00 74 1017.5
20260905210804 80 74 2.0 3.0 0.00 0.00 0.00 76 1017.6
20260905210304 80 67 1.0 3.0 0.00 0.00 0.00 77 1017.5
20260905205802 80 78 2.0 4.0 0.00 0.00 0.00 76 1017.5
20260905205257 80 79 2.0 2.0 0.00 0.00 0.00 77 1017.5
20260905204756 82 89 4.0 6.0 0.00 0.00 0.00 76 1017.7
20260905204253 81 53 2.0 3.0 0.00 0.00 0.00 74 1017.7
20260905203752 80 62 1.0 2.0 0.00 0.00 0.00 75 1017.7
20260905203247 81 123 2.0 4.0 0.00 0.00 0.00 77 1017.8
20260905202743 81 81 1.0 2.0 0.00 0.00 0.00 77 1017.8
20260905202238 81 66 0.0 1.0 0.00 0.00 0.00 78 1018.0
20260905201733 81 63 0.0 1.0 0.00 0.00 0.00 77 1017.6
20260905201228 81 40 3.0 3.0 0.00 0.00 0.00 78 1017.6
20260905200723 81 94 4.0 4.0 0.00 0.00 0.00 77 1017.6
20260905200219 81 62 2.0 4.0 0.00 0.00 0.00 78 1017.5
20260905195718 81 82 0.0 1.0 0.00 0.00 0.00 78 1017.4
20260905195218 81 23 3.0 3.0 0.00 0.00 0.00 77 1017.7
20260905194713 82 79 3.0 6.0 0.00 0.00 0.00 77 1018.0
20260905194213 82 39 3.0 4.0 0.00 0.00 0.00 78 1018.0
20260905193707 82 60 0.0 1.0 0.00 0.00 0.00 77 1018.1
20260905193202 82 79 2.0 4.0 0.00 0.00 0.00 77 1018.1
20260905192658 82 21 4.0 6.0 0.00 0.00 0.00 77 1018.1
20260905192154 82 84 3.0 6.0 0.00 0.00 0.00 77 1017.9
20260905191654 82 88 5.0 7.0 0.00 0.00 0.00 77 1017.9
20260905191151 83 56 2.0 3.0 0.00 0.00 0.00 75 1018.1
20260905190650 84 66 1.0 3.0 0.00 0.00 0.00 75 1017.9
20260905190149 84 34 2.0 3.0 0.00 0.00 0.00 75 1018.1
20260905185648 83 340 4.0 7.0 0.00 0.00 0.00 74 1018.1
20260905185143 84 63 2.0 3.0 0.00 0.00 0.00 75 1017.9
20260905184643 84 101 3.0 4.0 0.00 0.00 0.00 75 1017.9
20260905184142 83 48 2.0 3.0 0.00 0.00 0.00 75 1018.0
20260905183641 84 304 3.0 4.0 0.00 0.00 0.00 74 1017.9
20260905183137 84 89 8.0 10.0 0.00 0.00 0.00 75 1017.9
20260905182636 84 49 1.0 3.0 0.00 0.00 0.00 74 1017.8
20260905182136 84 39 4.0 4.0 0.00 0.00 0.00 75 1018.0
20260905181631 85 22 3.0 3.0 0.00 0.00 0.00 74 1018.0
20260905181130 84 14 2.0 3.0 0.00 0.00 0.00 73 1018.0
20260905180625 84 42 2.0 3.0 0.00 0.00 0.00 75 1018.0
20260905180121 86 330 6.0 8.0 0.00 0.00 0.00 72 1017.9
20260905175620 84 78 4.0 7.0 0.00 0.00 0.00 75 1018.1
20260905175115 84 77 6.0 7.0 0.00 0.00 0.00 74 1017.8
20260905174611 83 64 2.0 3.0 0.00 0.00 0.00 77 1017.9
20260905174106 83 351 6.0 8.0 0.00 0.00 0.00 77 1017.8
20260905173603 84 85 2.0 2.0 0.00 0.00 0.00 75 1018.1
20260905173058 82 20 4.0 4.0 0.00 0.00 0.00 78 1018.0
20260905172556 83 332 2.0 3.0 0.00 0.00 0.00 77 1018.0
20260905172052 84 84 3.0 4.0 0.00 0.00 0.00 76 1018.0
20260905171548 83 81 2.0 3.0 0.00 0.00 0.00 77 1018.1
20260905171044 83 349 1.0 3.0 0.00 0.00 0.00 76 1018.1
20260905170540 82 48 2.0 2.0 0.00 0.00 0.00 77 1018.1
20260905170035 83 85 6.0 9.0 0.00 0.00 0.00 77 1018.0
20260905165530 83 52 1.0 2.0 0.00 0.00 0.00 77 1018.1
20260905165020 83 71 1.0 3.0 0.00 0.00 0.00 77 1018.2
20260905164520 83 70 0.0 0.0 0.00 0.00 0.00 76 1018.2
20260905164014 82 100 4.0 6.0 0.00 0.00 0.00 77 1018.2
20260905163510 83 68 0.0 1.0 0.00 0.00 0.00 77 1018.4
20260905163006 83 28 4.0 4.0 0.00 0.00 0.00 77 1018.3
20260905162501 82 27 2.0 3.0 0.00 0.00 0.00 77 1018.3